Location: Menands
(42.6920°N, 73.7246°W)
Time: 07:16:34
(UTC+00:00)

COSMO-SKYMED 1 - Pass Details

Date: 18 February 2026
Orbit: 577 x 578 km, 97.9° (Epoch: 8 March)

Event Time Altitude Azimuth Distance (km) Brightness Sun altitude
Rises 23:06:42 0° 17° (NNE) 2,802 5.7 -7.3°
Reaches altitude 10° 23:08:54 10° 22° (NNE) 1,898 4.8 -7.7°
Maximum altitude 23:12:55 54° 100° (E) 707 2.5 -8.4°
Drops below altitude 10° 23:16:55 10° 178° (S) 1,882 5.1 -9.2°
Sets 23:19:06 0° 183° (S) 2,775 6.0 -9.6°
